Total_Precipitation_Accumulation
0.88 0.98 0.98 0.95 0.98 0.95 1.10 1.26 1.34 1.28 1.32 1.35 1.26 1.23 1.27 1.31 1.26 1.10 0.94 0.91 0.82 0.74 0.71 0.68 0.67 0.69 0.75 0.81 0.87 0.95 1.05 1.21 1.38 1.52 1.75 2.06 2.41 2.73
1.09 1.10 1.09 1.08 1.16 1.09 1.17 1.29 1.37 1.47 1.48 1.27 1.17 1.15 1.12 0.98 0.97 0.92 0.87 0.97 0.87 0.76 0.70 0.68 0.66 0.65 0.66 0.69 0.71 0.75 0.78 0.82 0.86 0.91 1.01 1.20 1.43 1.77
1.43 1.39 1.41 1.44 1.42 1.35 1.40 1.39 1.36 1.50 1.49 1.22 1.27 1.30 1.18 1.02 0.92 0.89 0.85 0.90 0.89 0.89 0.77 0.67 0.59 0.55 0.57 0.60 0.63 0.67 0.70 0.74 0.77 0.78 0.78 0.80 0.84 0.95
1.53 1.74 1.73 1.67 1.56 1.43 1.49 1.44 1.39 1.58 1.53 1.39 1.45 1.48 1.43 1.23 1.11 1.00 0.83 0.80 0.84 0.94 0.82 0.74 0.69 0.63 0.60 0.61 0.63 0.63 0.62 0.63 0.66 0.66 0.64 0.63 0.64 0.66
1.56 1.67 1.74 1.86 1.72 1.58 1.52 1.48 1.51 1.62 1.69 1.59 1.58 1.69 1.67 1.44 1.25 1.02 0.83 0.85 0.79 0.91 0.88 0.81 0.80 0.77 0.73 0.68 0.65 0.62 0.59 0.58 0.59 0.61 0.62 0.64 0.63 0.60
1.56 1.51 1.61 1.86 1.93 1.86 1.70 1.62 1.65 1.74 1.79 1.78 1.76 1.84 1.88 1.78 1.56 1.28 1.10 1.01 0.90 0.86 0.95 0.87 0.83 0.79 0.74 0.68 0.64 0.63 0.64 0.62 0.60 0.59 0.58 0.57 0.54 0.54
1.39 1.31 1.31 1.49 1.71 1.81 1.67 1.62 1.66 1.66 1.69 1.77 1.80 1.84 1.86 1.92 1.77 1.49 1.29 1.18 1.02 0.88 0.92 0.87 0.83 0.76 0.77 0.78 0.74 0.68 0.63 0.60 0.57 0.55 0.53 0.52 0.50 0.47
1.28 1.24 1.13 1.07 1.13 1.29 1.45 1.58 1.68 1.61 1.57 1.68 1.81 1.84 1.84 1.85 1.85 1.71 1.48 1.28 1.15 1.00 1.05 1.06 1.01 0.95 0.82 0.74 0.75 0.69 0.63 0.60 0.57 0.51 0.47 0.45 0.43 0.41
1.18 1.17 0.99 0.89 0.98 0.97 1.12 1.25 1.38 1.45 1.44 1.53 1.64 1.74 1.86 1.98 2.01 1.83 1.64 1.49 1.29 1.14 1.13 1.05 0.98 0.99 0.90 0.81 0.83 0.71 0.66 0.60 0.54 0.50 0.47 0.44 0.41 0.40
1.15 1.14 1.09 1.03 1.00 1.04 1.06 1.07 1.08 1.15 1.23 1.25 1.36 1.54 1.75 1.94 2.09 1.99 1.86 1.58 1.35 1.20 1.15 1.01 0.85 0.80 0.77 0.77 0.81 0.74 0.66 0.59 0.51 0.45 0.43 0.41 0.38 0.37
1.23 1.21 1.21 1.15 1.21 1.08 1.01 1.02 1.03 1.06 1.10 1.15 1.17 1.32 1.58 1.76 1.84 1.87 1.78 1.59 1.35 1.15 1.07 1.03 0.85 0.77 0.74 0.66 0.66 0.70 0.62 0.57 0.53 0.46 0.40 0.39 0.41 0.40
1.31 1.29 1.23 1.11 1.09 0.97 0.89 0.96 0.96 0.96 1.01 1.03 1.04 1.04 1.11 1.39 1.67 1.52 1.45 1.42 1.27 1.06 0.86 0.90 0.89 0.88 0.82 0.63 0.55 0.56 0.53 0.53 0.55 0.52 0.47 0.41 0.43 0.38
1.33 1.28 1.25 1.14 0.91 0.83 0.80 0.84 0.87 0.90 1.00 1.01 0.98 0.98 1.04 1.14 1.32 1.36 1.29 1.23 1.19 0.99 0.82 0.81 0.80 0.82 0.78 0.61 0.50 0.47 0.45 0.43 0.43 0.50 0.55 0.55 0.49 0.42
1.29 1.31 1.31 1.16 0.89 0.76 0.66 0.63 0.61 0.57 0.67 0.79 0.86 0.88 0.91 0.99 1.11 1.24 1.27 1.24 1.12 1.01 0.93 0.90 0.77 0.71 0.67 0.57 0.47 0.41 0.42 0.43 0.44 0.41 0.45 0.59 0.58 0.54
1.12 1.28 1.20 1.01 0.83 0.69 0.62 0.57 0.52 0.48 0.58 0.69 0.76 0.79 0.79 0.85 1.07 1.33 1.46 1.49 1.38 1.14 1.03 0.98 0.89 0.79 0.77 0.65 0.52 0.45 0.42 0.41 0.41 0.44 0.44 0.48 0.53 0.54
0.95 1.04 1.06 1.04 0.99 0.91 0.78 0.67 0.57 0.58 0.64 0.71 0.82 0.92 0.99 1.06 1.14 1.29 1.46 1.50 1.48 1.29 1.09 1.03 0.97 0.97 0.88 0.72 0.64 0.57 0.49 0.44 0.42 0.45 0.51 0.51 0.56 0.63
0.93 1.00 1.02 1.09 1.13 1.13 1.06 0.96 0.88 0.84 0.80 0.79 0.91 1.03 1.07 1.10 1.14 1.23 1.37 1.39 1.29 1.18 1.04 0.96 1.01 1.01 0.96 0.88 0.75 0.61 0.52 0.45 0.43 0.48 0.59 0.60 0.57 0.59
0.82 0.96 1.10 1.20 1.27 1.28 1.26 1.15 1.04 0.94 0.87 0.88 0.94 1.02 1.06 1.08 1.11 1.21 1.32 1.33 1.21 1.09 1.05 0.92 0.92 1.03 1.01 0.89 0.75 0.65 0.58 0.51 0.47 0.53 0.60 0.62 0.57 0.53
0.66 0.82 0.98 1.09 1.18 1.20 1.20 1.13 1.07 1.01 0.99 1.01 1.07 1.10 1.15 1.15 1.15 1.17 1.25 1.29 1.20 1.09 1.06 1.04 0.97 0.96 0.92 0.72 0.55 0.52 0.57 0.55 0.58 0.60 0.62 0.61 0.55 0.50
0.52 0.64 0.77 0.90 1.03 1.16 1.22 1.19 1.16 1.14 1.07 1.04 1.11 1.14 1.16 1.19 1.16 1.12 1.16 1.23 1.21 1.14 1.08 1.02 0.96 0.86 0.79 0.72 0.59 0.52 0.52 0.61 0.67 0.66 0.63 0.65 0.62 0.61
0.55 0.59 0.65 0.76 0.93 1.11 1.20 1.26 1.25 1.19 1.08 1.05 1.08 1.12 1.12 1.17 1.14 1.08 1.13 1.23 1.23 1.17 1.01 0.84 0.77 0.89 0.97 1.02 0.86 0.59 0.52 0.58 0.70 0.78 0.81 0.84 0.77 0.74
0.64 0.65 0.67 0.75 0.91 1.09 1.19 1.22 1.26 1.20 1.14 1.11 1.09 1.13 1.15 1.16 1.14 1.10 1.09 1.16 1.13 1.09 1.00 0.95 1.05 1.20 1.24 1.13 0.87 0.71 0.68 0.69 0.74 0.80 0.82 0.83 0.83 0.77
0.75 0.70 0.70 0.76 0.87 1.01 1.10 1.14 1.19 1.18 1.12 1.11 1.09 1.12 1.16 1.16 1.21 1.20 1.14 1.15 1.16 1.20 1.26 1.23 1.22 1.24 1.23 1.16 1.04 0.92 0.83 0.78 0.79 0.79 0.72 0.70 0.67 0.66